Regional Weather Roundup
Issued by NWS

Home | Current Version | Previous Version | Graphics & Text | Print | Product List | Glossary On
Versions: 1 2 3 4 5 6 7 8 9 10 11 12 13 14 15 16 17 18 19 20 21 22 23 24 25 26 27 28 29 30 31 32 33 34 35 36 37 38 39 40 41 42 43 44 45 46 47 48 49 50
000
ASUS43 KMKX 211111
RWRWI

WISCONSIN REGIONAL WEATHER ROUNDUP
NATIONAL WEATHER SERVICE MILWAUKEE/SULLIVAN WI
600 AM CDT SAT OCT 21 2017

NOTE: "FAIR" INDICATES FEW OR NO CLOUDS BELOW 12,000 FEET WITH NO
SIGNIFICANT WEATHER AND/OR OBSTRUCTIONS TO VISIBILITY.

WIZ001-002-006>008-014>016-023>028-211200-
NORTHWEST WISCONSIN

CITY           SKY/WX    TMP DP  RH WIND       PRES   REMARKS
SUPERIOR ARPT  CLOUDY    63  51  66 S10G16    29.68F
ASHLAND        CLOUDY    64  47  53 S10G18    29.74S
HAYWARD        PTCLDY    59  46  62 S7        29.75S
SIREN          CLOUDY    62  50  63 S13G25    29.71S
CUMBERLAND     MOCLDY    59  48  67 SE8       29.75S
RICE LAKE      PTCLDY    59  48  66 SE7       29.77S
CHETEK         CLEAR     59  49  68 SE7       29.77S
LADYSMITH      CLEAR     60  47  63 SE8       29.82S
EAU CLAIRE     PTCLDY    61  49  64 S16       29.77F
MENOMONIE      MOCLDY    62  50  65 SE8       29.77S
NEW RICHMOND   CLOUDY    61  49  66 S13G20    29.72F
OSCEOLA        CLOUDY    62  51  67 SE15G21   29.73F
$$

WIZ003>005-009-010-017-018-211200-
NORTH CENTRAL WISCONSIN

CITY           SKY/WX    TMP DP  RH WIND       PRES   REMARKS
MANITOWISH WTR CLOUDY    58  46  64 S8        29.84S
ARBOR VITAE    CLOUDY    62  48  59 S10G22    29.85F
WOODRUFF       CLOUDY    62  48  59 S10G22    29.85F
RHINELANDER    CLOUDY    61  47  59 S13G21    29.89S
EAGLE RIVER    NOT AVBL
LAND O LAKES   PTCLDY    60  44  56 S8G16     29.88S
PHILLIPS       PTCLDY    59  47  64 S13       29.82S
TOMAHAWK       PTCLDY    58  45  62 S5        29.88S
MEDFORD        PTCLDY    56  46  67 SE10      29.86S
MERRILL        PTCLDY    61  47  59 S3        29.89S
$$

WIZ029-030-035-036-043>047-211200-
CENTRAL WISCONSIN

CITY           SKY/WX    TMP DP  RH WIND       PRES   REMARKS
WAUSAU         CLEAR     57  45  64 SE8       29.89R
MOSINEE        CLEAR     57  46  67 SE9       29.91S
MARSHFIELD     CLEAR     57  46  66 S10       29.87S
STEVENS POINT  CLEAR     57  46  65 S6        29.91S
WAUPACA        CLOUDY    58  48  69 E3        29.93S
WAUTOMA        PTCLDY    59  49  69 S7        29.93
WISC RAPIDS    PTCLDY    60  48  64 S8        29.91S
CAMP DOUGLAS   PTCLDY    62  51  66 S12       29.88S
$$

WIZ011>013-019>022-031-037>040-048>050-211200-
NORTHEAST WISCONSIN

CITY           SKY/WX    TMP DP  RH WIND       PRES   REMARKS
ANTIGO         PTCLDY    52  46  79 SE9       29.93S
SHAWANO        PTCLDY    62  47  58 CALM      29.93S
OCONTO         CLOUDY    60  49  65 S5        29.94S
STURGEON BAY   PTCLDY    57  50  77 S9        29.98R
GREEN BAY      CLOUDY    62  50  64 S9        29.96R
MANITOWOC      MOCLDY    57  51  80 SE7       30.00R
APPLETON       MOCLDY    59  45  58 S8        29.94S
CLINTONVILLE   CLOUDY    59  46  63 S6        29.93S
OSHKOSH        MOCLDY    58  49  72 S10       29.95R
$$

WIZ032>034-041-042-053>061-211200-
SOUTHWEST WISCONSIN

CITY           SKY/WX    TMP DP  RH WIND       PRES   REMARKS
LA CROSSE      MOCLDY    64  52  64 S12       29.82F
SPARTA         PTCLDY    62  51  67 S10G16    29.86F
VIROQUA        MOCLDY    59  51  74 S10       29.88S
BOSCOBEL       CLOUDY    63  50  62 VRB3      29.89F
PRAIRIE DU CHI PTCLDY    64  49  59 SE9       29.86S
PLATTEVILLE    PTCLDY    61  52  73 SE10      29.92F
$$

WIZ056-057-062-063-064-067-068-211200-
SOUTH CENTRAL WISCONSIN

CITY           SKY/WX    TMP DP  RH WIND       PRES   REMARKS
REEDSBURG      PTCLDY    61  49  66 S12G17    29.91S
BARABOO/DELLS  PTCLDY    60  48  65 S12       29.92S
LONE ROCK      MOCLDY    59  51  75 VRB7      29.92S
MINERAL POINT  CLOUDY    59  52  77 SE12      29.93F
MADISON        CLOUDY    59  50  72 S8        29.95F
MIDDLETON      CLOUDY    61  50  67 S12       29.95F
WATERTOWN      MOCLDY    59  51  74 S7        29.98S
MONROE         PTCLDY    59  48  67 S14       29.96F
JANESVILLE     PTCLDY    59  50  72 S9        29.98S
$$

WIZ051-052-058>065-066-070>072-211200-
SOUTHEAST WISCONSIN

CITY           SKY/WX    TMP DP  RH WIND       PRES   REMARKS
MILWAUKEE      MOCLDY    64  50  60 S10       30.02S
WAUKESHA       MOCLDY    61  46  59 S7        30.02S
MILWAUKEE/TIMM CLOUDY    61  45  55 S6        30.01F
RACINE         CLOUDY    63  49  60 S10G16    30.04S
BURLINGTON     CLOUDY    60  51  72 S8        30.02S
KENOSHA        MOCLDY    62  48  60 S9        30.03F
FOND DU LAC    CLOUDY    62  47  57 S13G21    29.96S
SHEBOYGAN      CLOUDY    59  50  72 S10       29.99S
WEST BEND      CLOUDY    61  45  55 S5        30.00S
JUNEAU         MOCLDY    59  49  69 S12       29.98F
$$

LSZ147-162-211200-
LAKE SUPERIOR

STATION/POSITION TIME  TEMP    WIND        PRES    WAVE
                       AIR SEA DIR/SP/G            HT/PER
                 (UTC) (F)     (DEG/KT/KT) (MB)    (FT/S)
W MID LAKE BUOY  0950   58 52              1007.5F   2/ 4
DEVILS ISLAND    1100   63     170/  5/  7 1006.6F
PORT WING        0840          170/ 14/ 22 1006.1
SAXON HARBOR     1040   66     190/  7/ 18 1006.8S
$$

LMZ867-665-643>646-211200-
LAKE MICHIGAN

STATION/POSITION TIME  TEMP    WIND        PRES    WAVE
                       AIR SEA DIR/SP/G            HT/PER
                 (UTC) (F)     (DEG/KT/KT) (MB)    (FT/S)
S GREEN BAY BUOY 1100   61 58  170/ 14/ 16 1014.1
N MID LAKE BUOY  1050   61 58  180/ 17/ 21 1015.5F   5/ 6
NORTHPORT PIER   1040   59     170/  6/ 12 1014.9R
KEWAUNEE LAKESHO 1048   53     180/  9/ 11 1014.4F
SHEBOYGAN LAKESH 1100   55     180/ 17/ 17 1015.4F
PORT WASHINGTON  1040   56     180/  5/  7 1016.9S
ATWATER BUOY     0909   58 53  150/  8/ 10 1016.4S
MILWAUKEE LAKESH 1050   62     180/  7/  8   N/A
S MID LAKE BUOY  0950   62 61  180/ 14/ 17 1017.8R   2/ 4
KENOSHA   LAKESH 1100   58     180/ 11/ 14 1016.6
$$

TC  - TEMPERATURE IN CELSIUS
VSB - VISIBILITY IN STATUTE MILES
WCI - WIND CHILL INDEX
HX  - HEAT INDEX





USA.gov is the U.S. government's official web portal to all federal, state and local government web resources and services.